Renton, WA

1:31 PM PDT on July 23, 2016 (GMT -0700)
Renton Municipal

Weather History for KRNT - January, 2012

Change the Weather History Date:

Tuesday, January 3, 2012

  Actual Average Record
Temperature  
Mean Temperature 48 °F -  
Max Temperature 55 °F 45 °F 42 °F (2016)
Min Temperature 42 °F 36 °F 30 °F (2016)
Degree Days  
Heating Degree Days 16    
Moisture  
Dew Point 43 °F    
Average Humidity 84    
Maximum Humidity 93    
Minimum Humidity 66    
Precipitation  
Precipitation 0.00 in - - ()
Sea Level Pressure  
Sea Level Pressure 30.26 in    
Wind  
Wind Speed 1 mph (SSE)    
Max Wind Speed 7 mph    
Max Gust Speed -    
Visibility 10 miles    
Events Rain    
Averages and records for this station are not official NWS values.
T = Trace of Precipitation, MM = Missing Value Source: NWS Daily Summary

Daily Weather History Graph

Daily Weather History Graph

Search for Another Location

Airport or City:

Trip Planner

Search our weather history database for the weather conditions in past years. The results will help you decide how hot, cold, wet, or windy it might be!

Date:

Astronomy

Jan. 03, 2012 Rise Set
Actual Time 7:56 AM PST 4:30 PM PST
Civil Twilight 7:20 AM PST 5:05 PM PST
Nautical Twilight 6:42 AM PST 5:44 PM PST
Astronomical Twilight 6:04 AM PST 6:22 PM PST
Moon 12:26 PM PST (1/3) 2:45 AM PST (1/3)
Length of Visible Light 9h 44m
Length of Day
8h 33m
Waxing Gibbous, 73% of the Moon is Illuminated
Jan 3
Waxing Gibbous
Jan 8
Full
Jan 16
Last Quarter
Jan 22
New
Jan 30
First Quarter

Hourly Weather History & Observations

Time (PST) Temp. Windchill Dew Point Humidity Pressure Visibility Wind Dir Wind Speed Gust Speed Precip Events Conditions
12:53 AM 46.0 °F - 41.0 °F 83% 30.29 in 10.0 mi Calm Calm - N/A   Mostly Cloudy
1:53 AM 42.1 °F - 39.0 °F 89% 30.30 in 10.0 mi Calm Calm - N/A   Clear
2:53 AM 44.1 °F - 41.0 °F 89% 30.30 in 10.0 mi Calm Calm - N/A   Overcast
3:53 AM 45.0 °F - 42.1 °F 90% 30.30 in 10.0 mi Calm Calm - N/A   Mostly Cloudy
4:53 AM 44.1 °F - 41.0 °F 89% 30.29 in 10.0 mi Calm Calm - N/A   Mostly Cloudy
5:53 AM 45.0 °F - 42.1 °F 90% 30.27 in 10.0 mi Calm Calm - N/A   Mostly Cloudy
6:53 AM 46.0 °F 43.9 °F 42.1 °F 86% 30.28 in 10.0 mi East 4.6 mph - N/A   Overcast
7:53 AM 46.0 °F 43.9 °F 42.1 °F 86% 30.29 in 10.0 mi SE 4.6 mph - N/A   Overcast
8:53 AM 48.0 °F - 42.1 °F 80% 30.30 in 10.0 mi Calm Calm - N/A   Overcast
9:53 AM 48.0 °F - 43.0 °F 83% 30.31 in 10.0 mi SSE 3.5 mph - N/A   Overcast
10:53 AM 48.9 °F - 43.0 °F 80% 30.31 in 10.0 mi SE 4.6 mph - N/A   Overcast
11:53 AM 53.1 °F - 44.1 °F 71% 30.29 in 10.0 mi SSE 6.9 mph - N/A   Overcast
12:53 PM 55.4 °F - 44.6 °F 67% 30.25 in 10.0 mi SSE 6.9 mph - N/A   Mostly Cloudy
1:53 PM 54.0 °F - 43.0 °F 66% 30.25 in 10.0 mi Calm Calm - N/A   Mostly Cloudy
2:53 PM 54.0 °F - 46.9 °F 77% 30.24 in 10.0 mi West 3.5 mph - 0.00 in Rain Light Rain
3:53 PM 52.0 °F - 46.0 °F 80% 30.23 in 10.0 mi Calm Calm - 0.00 in   Mostly Cloudy
4:53 PM 51.1 °F - 46.9 °F 86% 30.24 in 10.0 mi Calm Calm - 0.00 in Rain Light Rain
5:53 PM 50.0 °F - 46.9 °F 89% 30.23 in 10.0 mi Calm Calm - 0.00 in Rain Light Rain
6:53 PM 50.0 °F - 46.0 °F 86% 30.25 in 10.0 mi Calm Calm - 0.00 in   Overcast
7:53 PM 48.9 °F - 46.0 °F 90% 30.25 in 10.0 mi Calm Calm - N/A   Overcast
8:53 PM 48.9 °F - 44.1 °F 83% 30.22 in 10.0 mi SSE 4.6 mph - N/A   Overcast
9:53 PM 48.9 °F - 44.1 °F 83% 30.20 in 10.0 mi Calm Calm - N/A   Overcast
10:53 PM 46.9 °F - 44.1 °F 90% 30.20 in 10.0 mi Calm Calm - N/A   Mostly Cloudy
11:53 PM 44.6 °F - 42.8 °F 93% 30.17 in 10.0 mi Calm Calm - N/A   Mostly Cloudy